Weather History for K20V - March, 2012

Change the Weather History Date:

Tuesday, March 13, 2012

  Actual Average (KEGE) Record (KEGE)
Temperature  
Mean Temperature 38 °F -  
Max Temperature 59 °F 49 °F 66 °F (1972)
Min Temperature 17 °F 19 °F -9 °F (1950)
Degree Days  
Heating Degree Days 27    
Moisture  
Dew Point 10 °F    
Average Humidity 44    
Maximum Humidity 86    
Minimum Humidity 9    
Precipitation  
Precipitation 0.00 in - - ()
Sea Level Pressure  
Sea Level Pressure 30.05 in    
Wind  
Wind Speed 5 mph (SW)    
Max Wind Speed 25 mph    
Max Gust Speed 37 mph    
Visibility 10 miles    
Events      
Averages and records for this station are not official NWS values.
T = Trace of Precipitation, MM = Missing Value Source: NWS Daily Summary

Daily Weather History Graph

Daily Weather History Graph

Search for Another Location

Airport or City:

Trip Planner

Search our weather history database for the weather conditions in past years. The results will help you decide how hot, cold, wet, or windy it might be!

Date:

Astronomy

Mar. 13, 2012 Rise Set
Actual Time 7:19 AM MDT 7:10 PM MDT
Civil Twilight 6:52 AM MDT 7:37 PM MDT
Nautical Twilight 6:20 AM MDT 8:09 PM MDT
Astronomical Twilight 5:49 AM MDT 8:41 PM MDT
Moon 12:45 AM MDT (3/13) 10:34 AM MDT (3/13)
Length of Visible Light 12h 45m
Length of Day
11h 51m
Waning Gibbous, 65% of the Moon is Illuminated
Mar 13
Waning Gibbous
Mar 14
Last Quarter
Mar 22
New
Mar 30
First Quarter
Apr 6
Full

Hourly Weather History & Observations

Time (MDT) Temp. Windchill Dew Point Humidity Pressure Visibility Wind Dir Wind Speed Gust Speed Precip Events Conditions
12:17 AM 30.2 °F - 19.4 °F 64% 30.12 in 10.0 mi Calm Calm - N/A   Clear
12:38 AM 30.2 °F 24.3 °F 19.4 °F 64% 30.11 in 10.0 mi ESE 5.8 mph - N/A   Clear
12:57 AM 30.2 °F - 17.6 °F 60% 30.11 in 10.0 mi Calm Calm - N/A   Clear
1:17 AM 28.4 °F - 17.6 °F 64% 30.11 in 10.0 mi Calm Calm - N/A   Clear
1:57 AM 30.2 °F 23.4 °F 19.4 °F 64% 30.11 in 10.0 mi SE 6.9 mph - N/A   Clear
2:18 AM 30.2 °F - 17.6 °F 60% 30.11 in 10.0 mi Calm Calm - N/A   Clear
2:38 AM 28.4 °F - 17.6 °F 64% 30.11 in 10.0 mi Calm Calm - N/A   Clear
2:58 AM 24.8 °F 19.1 °F 15.8 °F 69% 30.11 in 10.0 mi East 4.6 mph - N/A   Clear
3:18 AM 24.8 °F - 15.8 °F 69% 30.11 in 10.0 mi Calm Calm - N/A   Clear
3:38 AM 23.0 °F 15.8 °F 15.8 °F 74% 30.10 in 10.0 mi NNE 5.8 mph - N/A   Clear
3:58 AM 23.0 °F - 15.8 °F 74% 30.10 in 10.0 mi Calm Calm - N/A   Clear
4:18 AM 23.0 °F - 14.0 °F 68% 30.10 in 10.0 mi Calm Calm - N/A   Clear
4:38 AM 23.0 °F - 15.8 °F 74% 30.10 in 10.0 mi Calm Calm - N/A   Clear
4:58 AM 23.0 °F - 15.8 °F 74% 30.09 in 10.0 mi Calm Calm - N/A   Clear
5:18 AM 21.2 °F - 15.8 °F 80% 30.09 in 10.0 mi Calm Calm - N/A   Clear
5:38 AM 21.2 °F - 15.8 °F 80% 30.09 in 7.0 mi Calm Calm - N/A   Clear
5:57 AM 19.4 °F - 14.0 °F 80% 30.09 in 10.0 mi Calm Calm - N/A   Clear
6:17 AM 21.2 °F - 15.8 °F 80% 30.08 in 10.0 mi Calm Calm - N/A   Clear
6:37 AM 19.4 °F - 14.0 °F 80% 30.08 in 10.0 mi Calm Calm - N/A   Clear
6:58 AM 19.4 °F - 14.0 °F 80% 30.08 in 10.0 mi Calm Calm - N/A   Clear
7:08 AM 19.4 °F - 14.0 °F 80% 30.09 in 10.0 mi Calm Calm - N/A   Clear
7:36 AM 17.6 °F - 14.0 °F 86% 30.09 in 7.0 mi Calm Calm - N/A   Clear
8:18 AM 23.0 °F - 17.6 °F 80% 30.10 in 10.0 mi Calm Calm - N/A   Clear
8:37 AM 28.4 °F 23.3 °F 17.6 °F 64% 30.09 in 10.0 mi SSE 4.6 mph - N/A   Clear
8:58 AM 30.2 °F - 19.4 °F 64% 30.09 in 10.0 mi Calm Calm - N/A   Clear
9:18 AM 30.2 °F - 17.6 °F 60% 30.08 in 10.0 mi Calm Calm - N/A   Clear
9:38 AM 32.0 °F - 17.6 °F 55% 30.08 in 10.0 mi Calm Calm - N/A   Clear
9:58 AM 35.6 °F 31.7 °F 17.6 °F 48% 30.07 in 10.0 mi East 4.6 mph - N/A   Clear
10:18 AM 37.4 °F 32.8 °F 19.4 °F 48% 30.06 in 10.0 mi East 5.8 mph - N/A   Clear
10:38 AM 41.0 °F 36.4 °F 19.4 °F 42% 30.06 in 10.0 mi ESE 6.9 mph - N/A   Clear
10:58 AM 46.4 °F 43.5 °F 14.0 °F 27% 30.04 in 10.0 mi SE 5.8 mph - N/A   Clear
11:18 AM 51.8 °F - 6.8 °F 16% 30.03 in 10.0 mi SW 15.0 mph 24.2 mph N/A   Clear
11:38 AM 51.8 °F - 1.4 °F 13% 30.02 in 10.0 mi SW 17.3 mph 28.8 mph N/A   Clear
11:58 AM 53.6 °F - 1.4 °F 12% 30.02 in 10.0 mi WSW 12.7 mph 19.6 mph N/A   Clear
12:18 PM 53.6 °F - -0.4 °F 11% 30.01 in 10.0 mi SW 16.1 mph 24.2 mph N/A   Clear
12:38 PM 53.6 °F - -0.4 °F 11% 30.01 in 10.0 mi WSW 17.3 mph 27.6 mph N/A   Clear
12:58 PM 53.6 °F - -0.4 °F 11% 30.00 in 10.0 mi WSW 25.3 mph 32.2 mph N/A   Clear
1:18 PM 53.6 °F - -0.4 °F 11% 30.00 in 10.0 mi SW 20.7 mph 36.8 mph N/A   Clear
1:38 PM 55.4 °F - 1.4 °F 11% 29.99 in 10.0 mi WSW 21.9 mph 28.8 mph N/A   Clear
1:58 PM 53.6 °F - -4.0 °F 9% 29.98 in 10.0 mi SW 19.6 mph 32.2 mph N/A   Clear
2:18 PM 55.4 °F - -0.4 °F 10% 29.97 in 10.0 mi WSW 13.8 mph 25.3 mph N/A   Clear
2:38 PM 55.4 °F - 1.4 °F 11% 29.96 in 10.0 mi SW 16.1 mph 32.2 mph N/A   Clear
2:58 PM 55.4 °F - -0.4 °F 10% 29.96 in 10.0 mi SW 18.4 mph 25.3 mph N/A   Clear
3:18 PM 55.4 °F - -0.4 °F 10% 29.95 in 10.0 mi WSW 9.2 mph 24.2 mph N/A   Clear
3:58 PM 59.0 °F - -0.4 °F 9% 29.95 in 10.0 mi SW 10.4 mph 20.7 mph N/A   Clear
4:18 PM 59.0 °F - -0.4 °F 9% 29.95 in 10.0 mi WSW 16.1 mph 26.5 mph N/A   Clear
4:38 PM 57.2 °F - -0.4 °F 10% 29.94 in 10.0 mi West 17.3 mph 31.1 mph N/A   Clear
4:58 PM 55.4 °F - -0.4 °F 10% 29.95 in 10.0 mi WSW 12.7 mph 23.0 mph N/A   Clear
5:18 PM 55.4 °F - 1.4 °F 11% 29.95 in 10.0 mi WSW 13.8 mph 23.0 mph N/A   Clear
5:38 PM 55.4 °F - 1.4 °F 11% 29.96 in 10.0 mi WSW 17.3 mph 23.0 mph N/A   Clear
5:58 PM 53.6 °F - 1.4 °F 12% 29.96 in 10.0 mi WSW 12.7 mph 19.6 mph N/A   Clear
6:18 PM 53.6 °F - 5.0 °F 14% 29.96 in 10.0 mi WSW 10.4 mph - N/A   Clear
6:38 PM 53.6 °F - 5.0 °F 14% 29.96 in 10.0 mi WSW 9.2 mph - N/A   Clear
6:58 PM 50.0 °F - 3.2 °F 15% 29.97 in 10.0 mi WSW 5.8 mph - N/A   Clear
7:18 PM 50.0 °F - 3.2 °F 15% 29.98 in 10.0 mi WSW 8.1 mph - N/A   Clear
7:38 PM 50.0 °F - 5.0 °F 16% 29.98 in 10.0 mi SW 6.9 mph - N/A   Clear
7:58 PM 46.4 °F - 5.0 °F 18% 30.00 in 10.0 mi Calm Calm - N/A   Clear
8:17 PM 42.8 °F - 5.0 °F 21% 30.00 in 10.0 mi Calm Calm - N/A   Clear
8:37 PM 41.0 °F 39.0 °F 6.8 °F 24% 30.01 in 10.0 mi NNE 3.5 mph - N/A   Clear
8:58 PM 41.0 °F 34.7 °F 6.8 °F 24% 30.00 in 10.0 mi WSW 10.4 mph - N/A   Clear
9:17 PM 44.6 °F 40.2 °F 5.0 °F 20% 30.01 in 10.0 mi West 8.1 mph 16.1 mph N/A   Clear
9:38 PM 44.6 °F 39.2 °F 5.0 °F 20% 30.02 in 10.0 mi WSW 10.4 mph 16.1 mph N/A   Clear
9:58 PM 46.4 °F 39.5 °F 3.2 °F 17% 30.03 in 10.0 mi WSW 17.3 mph 25.3 mph N/A   Clear
10:18 PM 44.6 °F 40.7 °F 3.2 °F 18% 30.04 in 10.0 mi West 6.9 mph 19.6 mph N/A   Clear
10:38 PM 42.8 °F 39.3 °F 3.2 °F 19% 30.04 in 10.0 mi WNW 5.8 mph - N/A   Clear
10:58 PM 41.0 °F - 3.2 °F 21% 30.06 in 10.0 mi Calm Calm - N/A   Clear
11:18 PM 39.2 °F 34.2 °F 3.2 °F 22% 30.06 in 10.0 mi ESE 6.9 mph - N/A   Clear
11:37 PM 37.4 °F 32.8 °F 5.0 °F 26% 30.06 in 10.0 mi East 5.8 mph - N/A   Clear
11:58 PM 35.6 °F 31.7 °F 5.0 °F 28% 30.05 in 10.0 mi East 4.6 mph - N/A   Clear